AirNav   Duncan Aviation - Near you to keep you flying
 
 601 users online  

7MI0 Kamikaze Run Heliport
Novi, Michigan, USA

GOING TO NOVI?


FAA INFORMATION EFFECTIVE 15 JULY 2021

Location

FAA Identifier: 7MI0
Lat/Long: 42-30-50.1210N 083-29-21.7710W
42-30.835350N 083-29.362850W
42.5139225,-83.4893808
(estimated)
Elevation: 935 ft. / 285 m (estimated)
Variation: 06W (1985)
Time zone: UTC -4 (UTC -5 during Standard Time)
Zip code: 48390

Heliport Operations

Heliport use: Private use. Permission required prior to landing
Activation date: 02/1982
Control tower: no
ARTCC: CLEVELAND CENTER
FSS: LANSING FLIGHT SERVICE STATION
Attendance: UNATNDD
Wind indicator: yes
Segmented circle: no

Heliport Communications

WX ASOS at PTK (10 nm N): 125.025 (248-886-8551)
WX AWOS-3 at VLL (14 nm E): 119.475 (248-288-4649)
WX ASOS at YIP (17 nm S): PHONE 734-961-6843
WX ASOS at DTW (19 nm S): PHONE 734-955-5015

Nearby radio navigation aids

VOR radial/distance  VOR name  Freq  Var
SVMr039/7.8SALEM VORTAC114.3003W
DXOr349/18.8DETROIT VOR/DME113.4006W
CRLr000/28.0CARLETON VOR/DME115.7003W
FNTr163/29.4FLINT VORTAC116.9006W

 
NDB name  Hdg/Dist  Freq  Var  ID
GROSSE ILE336/28.941907WRYS .-. -.-- ...
TECUMSEH037/33.823906WTCU - -.-. ..-

Heliport Services

Runway Information

Helipad H1

Dimensions: 90 x 50 ft. / 27 x 15 m
Surface: turf
Latitude: 42-30.835350N
Longitude: 083-29.362850W
Elevation: 935.0 ft.
Traffic pattern: leftleft

Heliport Ownership and Management from official FAA records

Ownership: Privately-owned
Owner: A M KOWAL
1185 SO LAKE DRIVE
NOVI, MI 48088
Phone 313-669-1887
Manager: A M KOWAL
1185 SO LAKE DRIVE
NOVI, MI 48088
Phone 313-669-1887

Heliport Operational Statistics

Aircraft based on the field: 1
Helicopters: 1
    

Additional Remarks

FOR CD CTC DETROIT APCH AT 800-499-8181.

Instrument Procedures

There are no published instrument procedures at 7MI0.

Some nearby airports with instrument procedures:

Y47 - Oakland Southwest Airport (6 nm W)
KPTK - Oakland County International Airport (10 nm N)
1D2 - Canton-Plymouth-Mettetal Airport (10 nm S)
KVLL - Oakland/Troy Airport (14 nm E)
KYIP - Willow Run Airport (17 nm S)
KDTW - Detroit Metro Wayne County Airport (19 nm S)
 
Loc | Ops | Rwys | IFR | FBO | Links
Com | Nav | Svcs | Stats | Notes
Area around 7MI0 (Kamikaze Run Heliport)
 
Road maps at: MapQuest Bing Google
 
Aerial photo
No photo
 
Sectional chart

 
Airport distance calculator
Flying to Kamikaze Run Heliport? Find the distance to fly.

From to 7MI0

Sunrise and sunset
Times for 06-Aug-2021
 Local
(UTC-4)
 Zulu
(UTC)
Morning civil twilight06:0110:01
Sunrise06:3210:32
Sunset20:4700:47
Evening civil twilight21:1901:19

Current date and time
Zulu (UTC)  06-Aug-2021 04:58:55
Local (UTC-4)  06-Aug-2021 00:58:55
 
METAR
KPTK 
10nm N 
060453Z AUTO 00000KT 10SM CLR 21/17 A3008 RMK AO2 SLP178 T02060167 402890156 TSNO
KVLL 
14nm E 
060455Z AUTO 00000KT 10SM CLR 22/17 A3010 RMK AO2 T02200165
KYIP 
17nm S 
060453Z 00000KT 10SM CLR 21/17 A3009 RMK AO2 SLP181 T02060172 403060144
KDTW 
18nm S 
060453Z 19003KT 9SM SCT250 21/17 A3008 RMK AO2 SLP183 T02110172 402890172
TAF
KPTK 
10nm N 
051720Z 0518/0618 22005KT P6SM SCT040 FM052000 21006KT P6SM SCT050 BKN080 FM060200 VRB03KT P6SM SKC FM061100 19006KT P6SM SCT050 BKN200
KYIP 
17nm S 
051720Z 0518/0618 22005KT P6SM SCT050 FM052000 19007KT P6SM SCT060 BKN090 FM060200 17003KT P6SM FEW060 FM061100 19006KT P6SM SCT050 BKN200
KDTW 
18nm S 
060302Z 0603/0706 18003KT P6SM SCT250 FM061100 19006KT P6SM SCT060 BKN250 FM061800 21008G15KT P6SM SCT060 BKN150 FM062300 22005KT P6SM BKN120
NOTAMs
Click for the latest NOTAMs
NOTAMs are issued by the DoD/FAA and will open in a separate window not controlled by AirNav.

 

 
 

Would you like to see your business listed on this page?

 If your business provides an interesting product or service to pilots, flight crews, aircraft, or users of the Kamikaze Run Heliport, you should consider listing it here.  To start the listing process, click on the button below
 
Add a business
 

Other Pages about Kamikaze Run Heliport

Update a link
 
Copyright © AirNav, LLC. All rights reserved. Privacy Policy  Contact